• în România
  • Lista ţărilor
  • Pe 7 zile
  • Temperatura apei
  • Hartă satelitară
  • Meteo pe hartă
  • Widget-uri
  • user-avatar
    Intrare

    Meteo pe oră la Krutye Slancy

    Astăzi, 25 Septembrie, Marţi

    Timp Temperatura Precipitaţii Vânt Presiune Umiditate
    00:00 +11°C° 0.1 mm 6 m/s 744 mmHg 57%
    01:00 +11°C° 0 mm 6 m/s 744 mmHg 57%
    02:00 +11°C° 0 mm 6 m/s 743 mmHg 57%
    03:00 +12°C° 0 mm 5 m/s 742 mmHg 61%
    04:00 +12°C° 0.5 mm 5 m/s 742 mmHg 67%
    05:00 +10°C° 0.5 mm 5 m/s 741 mmHg 73%
    06:00 +10°C° 0.5 mm 6 m/s 741 mmHg 79%
    07:00 +10°C° 1.1 mm 5 m/s 741 mmHg 83%
    08:00 +11°C° 1.1 mm 4 m/s 741 mmHg 86%
    09:00 +12°C° 0 mm 4 m/s 741 mmHg 89%
    10:00 +12°C° 0.3 mm 5 m/s 742 mmHg 84%
    11:00 +12°C° 0.3 mm 5 m/s 742 mmHg 79%
    12:00 +12°C° 0.3 mm 5 m/s 743 mmHg 73%
    13:00 +12°C° 0.1 mm 5 m/s 743 mmHg 71%
    14:00 +12°C° 0.1 mm 5 m/s 744 mmHg 69%
    15:00 +12°C° 0.1 mm 5 m/s 744 mmHg 67%
    16:00 +12°C° 0 mm 4 m/s 745 mmHg 68%
    17:00 +11°C° 0 mm 4 m/s 745 mmHg 70%
    18:00 +11°C° 0 mm 3 m/s 746 mmHg 72%
    19:00 +10°C° 0 mm 3 m/s 746 mmHg 74%
    20:00 +10°C° 0 mm 3 m/s 747 mmHg 77%
    21:00 +9°C° 0 mm 3 m/s 747 mmHg 79%
    22:00 +8°C° 0 mm 3 m/s 748 mmHg 80%
    23:00 +8°C° 0 mm 3 m/s 748 mmHg 82%

    Mâine, 26 Septembrie, Miercuri

    Timp Temperatura Precipitaţii Vânt Presiune Umiditate
    00:00 +7°C° 0 mm 3 m/s 749 mmHg 84%
    01:00 +7°C° 0 mm 3 m/s 749 mmHg 85%
    02:00 +5°C° 0 mm 3 m/s 750 mmHg 86%
    03:00 +5°C° 0 mm 3 m/s 750 mmHg 87%
    04:00 +4°C° 0 mm 3 m/s 751 mmHg 87%
    05:00 +4°C° 0 mm 3 m/s 751 mmHg 88%
    06:00 +4°C° 0 mm 3 m/s 752 mmHg 88%
    07:00 +5°C° 0 mm 3 m/s 752 mmHg 83%
    08:00 +6°C° 0 mm 4 m/s 753 mmHg 77%
    09:00 +7°C° 0 mm 4 m/s 753 mmHg 72%
    10:00 +8°C° 0 mm 4 m/s 754 mmHg 67%
    11:00 +11°C° 0 mm 4 m/s 754 mmHg 62%
    12:00 +12°C° 0 mm 4 m/s 754 mmHg 56%
    13:00 +12°C° 0 mm 4 m/s 754 mmHg 55%
    14:00 +12°C° 0 mm 4 m/s 754 mmHg 54%
    15:00 +12°C° 0 mm 4 m/s 754 mmHg 52%
    16:00 +11°C° 0 mm 3 m/s 755 mmHg 56%
    17:00 +10°C° 0 mm 3 m/s 755 mmHg 60%
    18:00 +9°C° 0 mm 2 m/s 755 mmHg 64%
    19:00 +8°C° 0 mm 2 m/s 755 mmHg 66%
    20:00 +8°C° 0 mm 2 m/s 756 mmHg 68%
    21:00 +7°C° 0 mm 2 m/s 756 mmHg 70%
    22:00 +7°C° 0 mm 2 m/s 756 mmHg 71%
    23:00 +5°C° 0 mm 3 m/s 756 mmHg 72%

    Poimâine, 27 Septembrie, Joi

    Timp Temperatura Precipitaţii Vânt Presiune Umiditate
    00:00 +5°C° 0 mm 3 m/s 755 mmHg 73%
    01:00 +5°C° 0 mm 3 m/s 755 mmHg 73%
    02:00 +4°C° 0 mm 3 m/s 755 mmHg 74%
    03:00 +4°C° 0 mm 4 m/s 754 mmHg 75%
    04:00 +4°C° 0 mm 4 m/s 754 mmHg 73%
    05:00 +3°C° 0 mm 5 m/s 753 mmHg 70%
    06:00 +3°C° 0 mm 5 m/s 753 mmHg 68%
    07:00 +4°C° 0 mm 6 m/s 752 mmHg 65%
    08:00 +5°C° 0 mm 7 m/s 752 mmHg 62%
    09:00 +6°C° 0 mm 8 m/s 751 mmHg 59%
    10:00 +6°C° 0.4 mm 9 m/s 751 mmHg 59%
    11:00 +6°C° 0.4 mm 9 m/s 750 mmHg 59%
    12:00 +6°C° 0.4 mm 10 m/s 749 mmHg 60%
    13:00 +6°C° 0.7 mm 9 m/s 749 mmHg 63%
    14:00 +6°C° 0.7 mm 9 m/s 748 mmHg 67%
    15:00 +6°C° 0.7 mm 9 m/s 748 mmHg 71%
    16:00 +6°C° 0.2 mm 9 m/s 747 mmHg 73%
    17:00 +6°C° 0.2 mm 9 m/s 747 mmHg 74%
    18:00 +6°C° 0.2 mm 9 m/s 746 mmHg 76%
    19:00 +7°C° 0.1 mm 8 m/s 746 mmHg 78%
    20:00 +7°C° 0.1 mm 8 m/s 747 mmHg 79%
    21:00 +7°C° 0.1 mm 8 m/s 747 mmHg 81%
    22:00 +8°C° 0.1 mm 7 m/s 747 mmHg 84%
    23:00 +8°C° 0.1 mm 6 m/s 747 mmHg 86%

    28 Septembrie, Vineri

    Timp Temperatura Precipitaţii Vânt Presiune Umiditate
    00:00 +8°C° 0.1 mm 5 m/s 747 mmHg 89%
    01:00 +7°C° 0 mm 5 m/s 748 mmHg 90%
    02:00 +7°C° 0 mm 4 m/s 748 mmHg 92%
    03:00 +6°C° 0 mm 4 m/s 748 mmHg 93%
    04:00 +6°C° 0 mm 4 m/s 748 mmHg 94%
    05:00 +6°C° 0 mm 4 m/s 748 mmHg 95%
    06:00 +5°C° 0 mm 3 m/s 749 mmHg 95%
    07:00 +7°C° 0 mm 4 m/s 749 mmHg 89%
    08:00 +8°C° 0 mm 4 m/s 749 mmHg 82%
    09:00 +11°C° 0 mm 4 m/s 749 mmHg 76%
    10:00 +12°C° 0 mm 5 m/s 749 mmHg 68%
    11:00 +14°C° 0 mm 6 m/s 749 mmHg 59%
    12:00 +15°C° 0 mm 6 m/s 749 mmHg 51%
    13:00 +16°C° 0 mm 6 m/s 748 mmHg 52%
    14:00 +16°C° 0 mm 7 m/s 748 mmHg 52%
    15:00 +16°C° 0 mm 7 m/s 747 mmHg 53%
    16:00 +16°C° 0 mm 7 m/s 747 mmHg 56%
    17:00 +15°C° 0 mm 6 m/s 746 mmHg 59%
    18:00 +14°C° 0 mm 5 m/s 746 mmHg 62%
    19:00 +14°C° 0 mm 6 m/s 746 mmHg 64%
    20:00 +13°C° 0 mm 6 m/s 746 mmHg 66%
    21:00 +12°C° 0 mm 7 m/s 745 mmHg 68%
    22:00 +12°C° 0 mm 7 m/s 745 mmHg 70%
    23:00 +12°C° 0 mm 7 m/s 745 mmHg 73%

    29 Septembrie, Sâmbătă

    Timp Temperatura Precipitaţii Vânt Presiune Umiditate
    00:00 +14°C° 0 mm 7 m/s 745 mmHg 75%
    01:00 +14°C° 0.1 mm 7 m/s 745 mmHg 77%
    02:00 +13°C° 0.1 mm 6 m/s 746 mmHg 79%
    03:00 +13°C° 0.1 mm 5 m/s 746 mmHg 81%
    04:00 +12°C° 0 mm 5 m/s 747 mmHg 80%
    05:00 +11°C° 0 mm 4 m/s 748 mmHg 79%
    06:00 +10°C° 0 mm 4 m/s 748 mmHg 78%
    07:00 +10°C° 0 mm 4 m/s 749 mmHg 74%
    08:00 +8°C° 0 mm 4 m/s 749 mmHg 69%
    09:00 +8°C° 0 mm 4 m/s 750 mmHg 64%
    10:00 +10°C° 0 mm 3 m/s 750 mmHg 57%
    11:00 +11°C° 0 mm 3 m/s 751 mmHg 51%
    12:00 +12°C° 0 mm 3 m/s 751 mmHg 44%
    13:00 +13°C° 0 mm 3 m/s 751 mmHg 42%
    14:00 +13°C° 0 mm 3 m/s 751 mmHg 41%
    15:00 +13°C° 0 mm 3 m/s 751 mmHg 39%
    16:00 +12°C° 0.1 mm 3 m/s 751 mmHg 43%
    17:00 +11°C° 0.1 mm 3 m/s 751 mmHg 47%
    18:00 +10°C° 0.1 mm 3 m/s 752 mmHg 50%
    19:00 +10°C° 0.1 mm 3 m/s 752 mmHg 52%
    20:00 +9°C° 0.1 mm 3 m/s 752 mmHg 54%
    21:00 +9°C° 0.1 mm 3 m/s 753 mmHg 56%
    22:00 +9°C° 0.1 mm 3 m/s 753 mmHg 57%
    23:00 +7°C° 0.1 mm 4 m/s 753 mmHg 58%

    30 Septembrie, Duminică

    Timp Temperatura Precipitaţii Vânt Presiune Umiditate
    00:00 +7°C° 0.1 mm 4 m/s 754 mmHg 59%
    01:00 +7°C° 0.1 mm 4 m/s 754 mmHg 60%
    02:00 +7°C° 0.1 mm 4 m/s 754 mmHg 60%
    03:00 +7°C° 0.1 mm 4 m/s 755 mmHg 61%
    04:00 +7°C° 0.1 mm 3 m/s 755 mmHg 64%
    05:00 +7°C° 0.1 mm 3 m/s 756 mmHg 66%
    06:00 +7°C° 0.1 mm 3 m/s 756 mmHg 69%
    07:00 +7°C° 0 mm 3 m/s 756 mmHg 66%
    08:00 +8°C° 0 mm 3 m/s 757 mmHg 64%
    09:00 +8°C° 0 mm 3 m/s 757 mmHg 62%
    10:00 +9°C° 0 mm 3 m/s 757 mmHg 56%
    11:00 +10°C° 0 mm 3 m/s 757 mmHg 51%
    12:00 +11°C° 0 mm 3 m/s 757 mmHg 45%
    13:00 +12°C° 0 mm 3 m/s 757 mmHg 43%
    14:00 +12°C° 0 mm 3 m/s 757 mmHg 42%
    15:00 +12°C° 0 mm 3 m/s 757 mmHg 40%
    16:00 +11°C° 0 mm 3 m/s 757 mmHg 43%
    17:00 +9°C° 0 mm 3 m/s 757 mmHg 46%
    18:00 +8°C° 0 mm 2 m/s 758 mmHg 49%
    19:00 +7°C° 0 mm 2 m/s 758 mmHg 50%
    20:00 +7°C° 0 mm 2 m/s 758 mmHg 51%
    21:00 +6°C° 0 mm 2 m/s 758 mmHg 52%
    22:00 +6°C° 0 mm 2 m/s 758 mmHg 53%
    23:00 +6°C° 0 mm 1 m/s 758 mmHg 54%
    Arată mai mult